O3B FM19

Last updated on Wed Jun 24 2026 00:03:25 GMT+0000 (Coordinated Universal Time)

1 44113U 19020B 26173.63606545 -.00000022 00000+0 00000+0 0 9992 2 44113 0.0764 339.1666 0003897 93.3433 287.5311 5.00116025131718
UTC large
Height (km)
Speed (km/s)
/
Latitude / Longitude
Inclination (degrees)
Orbital Period (minutes)
Azimuth
Elevation
Range (km)
Doppler Factor

Next 0 passes for location: London (51.5072 / 0.1276)

No passes found over London.
O3B FM19